KC4YVV-22 Weather Reports


time (UTC)temp
F
wind
direction
speed
knots
gust
knots
rain 1hr
in
rain 24hr
in
rain mn
in
humidity
%
barometer
mb
20260506013035 73 0 0.0 9.6 0.00 0.00 0.00 44 1011.7
20260506011530 72 0 0.9 7.0 0.00 0.00 0.00 43 1011.4
20260506010034 72 0 0.0 2.6 0.00 0.00 0.00 43 1011.3
20260506004552 73 299 0.9 6.1 0.00 0.00 0.00 40 1011.8
20260506003030 74 250 0.0 4.3 0.00 0.00 0.00 41 1011.9
20260506001531 74 0 0.0 0.0 0.00 0.00 0.00 40 1012.1
20260506000033 74 297 0.9 5.2 0.00 0.00 0.00 38 1012.2
20260505234601 75 314 0.0 7.0 0.00 0.00 0.00 39 1011.8
20260505233032 75 0 0.0 3.5 0.00 0.00 0.00 41 1011.6
20260505231536 76 0 0.0 2.6 0.00 0.00 0.00 39 1011.5
20260505230032 76 19 0.0 3.5 0.00 0.00 0.00 37 1011.6
20260505224535 77 0 0.9 6.1 0.00 0.00 0.00 37 1011.6
20260505223040 77 307 0.0 6.1 0.00 0.00 0.00 34 1011.5
20260505221534 78 0 0.0 5.2 0.00 0.00 0.00 33 1011.7
20260505220033 78 311 0.9 6.1 0.00 0.00 0.00 34 1011.8
20260505214539 78 24 2.6 12.2 0.00 0.00 0.00 34 1011.8
20260505213030 80 0 2.6 9.6 0.00 0.00 0.00 36 1011.7
20260505211530 80 8 0.9 7.0 0.00 0.00 0.00 35 1011.8
20260505210033 80 0 0.0 8.7 0.00 0.00 0.00 35 1012.1
20260505204532 81 285 0.0 6.1 0.00 0.00 0.00 35 1012.2
20260505203031 80 0 0.0 7.0 0.00 0.00 0.00 34 1012.4
20260505201535 80 29 2.6 6.1 0.00 0.00 0.00 34 1012.4
20260505200035 79 224 0.9 6.1 0.00 0.00 0.00 39 1012.5
20260505194535 78 0 0.0 6.1 0.00 0.00 0.00 39 1012.7
20260505193034 77 274 2.6 5.2 0.00 0.00 0.00 39 1012.9
20260505191536 76 285 1.7 3.5 0.00 0.00 0.00 41 1013.1
20260505190045 77 134 0.9 3.5 0.00 0.00 0.00 39 1013.6
20260505184536 77 0 0.9 5.2 0.00 0.00 0.00 40 1013.8
20260505183043 76 0 0.0 7.0 0.00 0.00 0.00 40 1014.3
20260505181532 76 331 0.9 3.5 0.00 0.00 0.00 44 1014.4
20260505180032 75 275 0.9 4.3 0.00 0.00 0.00 43 1014.7
20260505174536 75 0 0.9 5.2 0.00 0.00 0.00 45 1015.0
20260505173043 76 0 0.9 5.2 0.00 0.00 0.00 46 1015.3
20260505171536 75 0 0.0 2.6 0.00 0.00 0.00 49 1015.4
20260505170035 74 0 0.0 5.2 0.00 0.00 0.00 49 1015.7
20260505164531 75 271 0.0 4.3 0.00 0.00 0.00 49 1015.6
20260505163031 74 0 0.0 4.3 0.00 0.00 0.00 49 1015.7
20260505161532 74 230 1.7 7.0 0.00 0.00 0.00 46 1015.7
20260505153039 71 288 0.9 4.3 0.00 0.00 0.00 52 1015.6
20260505151535 71 277 0.0 3.5 0.00 0.00 0.00 55 1015.9
20260505124532 56 0 0.0 0.0 0.00 0.00 0.00 77 1015.7
20260505123032 54 0 0.0 0.0 0.00 0.00 0.00 73 1015.6
20260505121532 52 0 0.0 0.0 0.00 0.00 0.00 72 1015.5
20260505120038 51 0 0.0 0.0 0.00 0.00 0.00 73 1015.3
20260505114535 50 0 0.0 0.0 0.00 0.00 0.00 74 1015.2
20260505113032 49 0 0.0 0.0 0.00 0.00 0.00 75 1014.9
20260505111534 49 0 0.0 0.0 0.00 0.00 0.00 76 1014.7
20260505101529 49 0 0.0 0.0 0.00 0.00 0.00 78 1014.7
20260505100032 49 0 0.0 0.0 0.00 0.00 0.00 78 1014.8
20260505094531 49 0 0.0 0.0 0.00 0.00 0.00 79 1014.5
20260505093032 49 0 0.0 0.0 0.00 0.00 0.00 79 1014.5
20260505091530 49 0 0.0 0.0 0.00 0.00 0.00 80 1014.5
20260505090036 49 0 0.0 0.0 0.00 0.00 0.00 80 1014.5
20260505084543 50 0 0.0 0.0 0.00 0.00 0.00 80 1014.4
20260505083032 50 0 0.0 0.0 0.00 0.00 0.00 81 1014.5
20260505081532 50 0 0.0 0.0 0.00 0.00 0.00 81 1014.4
20260505080037 50 0 0.0 0.0 0.00 0.00 0.00 81 1014.4
20260505074535 51 0 0.0 0.0 0.00 0.00 0.00 82 1014.4
20260505073041 51 0 0.0 0.0 0.00 0.00 0.00 82 1014.5
20260505071530 51 0 0.0 0.0 0.00 0.00 0.00 82 1014.6
20260505070040 52 0 0.0 0.0 0.00 0.00 0.00 82 1014.7
20260505064534 52 0 0.0 0.0 0.00 0.00 0.00 82 1014.7
20260505063032 52 0 0.0 0.0 0.00 0.00 0.00 83 1014.6
20260505061540 52 0 0.0 0.0 0.00 0.00 0.00 83 1014.7
20260505060035 53 0 0.0 0.0 0.00 0.00 0.00 83 1014.6
20260505054538 53 0 0.0 0.0 0.00 0.00 0.00 83 1014.6
20260505053032 53 0 0.0 0.0 0.00 0.00 0.00 83 1014.4
20260505051531 53 0 0.0 0.0 0.00 0.00 0.00 83 1014.3
20260505041549 54 0 0.0 0.0 0.00 0.00 0.00 83 1014.3
20260505040040 54 0 0.0 0.0 0.00 0.00 0.00 83 1014.3
20260505034532 55 0 0.0 0.0 0.00 0.00 0.00 83 1014.2
20260505033034 55 0 0.0 0.0 0.00 0.00 0.00 82 1014.3
20260505031539 55 0 0.0 0.0 0.00 0.00 0.00 82 1014.4
20260505030032 56 0 0.0 0.0 0.00 0.00 0.00 82 1014.4
20260505024533 56 0 0.0 0.0 0.00 0.00 0.00 81 1014.5
20260505023031 57 0 0.0 0.0 0.00 0.00 0.00 80 1014.5
20260505021534 58 0 0.0 0.0 0.00 0.00 0.00 79 1014.4
20260505020031 59 0 0.0 0.0 0.00 0.00 0.00 77 1014.5
20260505014546 59 0 0.0 0.0 0.00 0.00 0.00 76 1014.3